Retour au catalogue

BREEZE-M DEB

LostHEO
NORAD 38642·DEBRIS·🇷🇺 Russia

Lancé Mar 14, 2008 depuis Baikonur Cosmodrome

Loading…

Prochains Passages (prochaines 24 heures)

TLE

PériméSource: Space-Track

Époque: Dec 20, 2025, 01:16 UTC

1 38642U 08011CR  25354.05295196 -.00000708  00000-0 -21098-1 0  9997
2 38642  48.7483  18.7215 6362014 246.5936  81.4627  3.08632421 17858

Suivez BREEZE-M DEB en temps réel avec AllMySat

Download on the App Store